Location: Kellogg
(38.0159°N, 90.0546°W)
Time: 19:53:52
(UTC+00:00)

Altair - Pass Details

Date: 14 September 2024
Orbit: 1501 x 1682 km, 47.2° (Epoch: 15 October)

Event Time Altitude Azimuth Distance (km) Brightness Sun altitude
Rises 05:52:28 0° 179° (S) 4,786 - -48.8°
Reaches altitude 10° 05:56:50 10° 162° (SSE) 3,838 - -48.8°
Maximum altitude 06:02:55 18° 123° (ESE) 3,256 - -48.7°
Exits shadow 06:08:56 10° 85° (E) 3,891 9.6 -48.7°
Drops below altitude 10° 06:09:06 10° 84° (E) 3,921 9.7 -48.7°
Sets 06:13:34 0° 68° (ENE) 4,929 10.4 -48.6°
